Vorticity
5 5 6 7 9 11 15 19 23 28 32 37 41 44 46 48 47 45 42 37 31 26 21 17 14 13 12 12 12 12 13 13 14 15 16 17 16 15 14 13 12 13 13 15 16 18 20 21 23 25 26 26 26 26 24 21 18 15 12 9 7 6 4 4 4 5 5 6 7
7 6 5 5 5 6 7 9 11 14 17 21 25 29 34 38 42 45 47 48 46 43 38 32 26 21 17 15 14 13 12 11 11 12 13 16 17 18 17 15 13 11 10 10 11 12 14 16 18 21 23 24 25 26 26 24 22 20 18 14 11 9 6 5 4 4 4 5 6
12 9 7 6 5 5 5 5 6 7 8 10 12 15 18 21 25 30 35 40 44 46 47 46 41 36 31 27 24 21 19 16 14 12 11 11 12 14 15 15 14 12 10 8 7 7 9 11 13 16 19 21 22 24 25 25 23 22 21 19 16 13 10 7 6 5 4 4 5
19 15 12 10 8 7 6 5 5 6 6 7 8 9 10 11 13 16 20 24 28 32 37 41 43 42 40 38 35 32 29 26 24 21 19 16 15 14 13 13 12 10 9 7 5 5 5 5 8 10 14 17 19 21 23 24 24 24 23 22 19 16 14 11 8 6 5 4 4
23 22 19 17 15 13 11 10 9 8 8 9 9 9 9 10 11 12 13 14 17 20 24 28 32 36 38 40 40 40 40 41 42 42 42 41 40 37 35 32 28 24 20 17 15 13 11 10 10 11 12 14 17 19 21 22 23 24 24 23 21 20 17 15 12 9 6 5 4
19 20 21 21 20 19 17 15 14 13 13 13 13 13 13 13 13 12 12 13 14 15 16 18 21 24 27 30 32 36 39 42 46 50 54 57 59 61 62 62 60 57 53 48 43 38 34 30 28 26 24 22 21 21 21 21 23 24 25 24 23 22 20 19 16 13 9 7 5
13 14 15 17 17 17 17 16 15 15 15 16 16 17 17 17 16 16 15 15 15 15 14 14 14 15 16 17 18 20 22 24 24 25 25 26 29 33 37 43 48 53 56 59 57 54 50 46 43 41 38 34 32 29 26 23 23 24 25 25 25 23 22 21 19 16 13 10 7
14 13 13 13 13 13 13 13 13 13 14 15 15 16 17 18 18 19 19 18 18 17 16 16 15 13 12 11 11 10 8 4 0 -3 -4 -4 -0 4 8 13 18 24 31 38 45 49 51 52 50 49 47 45 43 39 35 30 27 26 25 26 26 25 24 23 22 20 17 14 11
18 18 16 15 15 14 14 13 13 13 13 12 13 13 14 15 17 18 19 20 20 19 19 19 18 17 15 13 11 7 3 -2 -6 -9 -9 -6 -2 3 6 8 8 9 11 16 22 28 35 41 45 48 51 53 53 50 46 41 35 31 28 26 26 26 26 26 24 22 20 18 15
19 20 20 20 19 19 18 18 17 16 15 14 13 13 13 13 14 16 18 19 20 20 19 19 20 20 19 18 15 10 5 -1 -5 -6 -6 -4 -0 4 8 10 9 7 5 6 8 11 14 19 25 32 39 46 51 55 56 54 48 42 35 30 28 27 27 27 26 25 23 21 19
15 16 17 18 19 19 20 20 20 20 20 19 18 17 16 15 15 16 17 18 19 20 20 19 19 20 21 21 19 14 9 3 -1 -3 -3 -2 1 4 7 10 10 9 7 5 4 4 5 6 9 13 19 25 33 42 50 57 58 54 48 40 34 30 29 28 28 27 26 24 22
9 10 11 11 12 14 15 16 17 19 20 20 20 20 20 19 19 18 18 18 19 20 20 20 19 19 20 20 19 16 12 7 4 2 2 3 4 5 6 8 9 10 10 8 5 3 2 2 4 6 8 10 14 21 30 41 51 57 58 53 44 38 33 30 29 29 28 27 25
5 5 5 5 6 7 8 9 11 13 14 16 18 19 20 21 21 21 21 20 20 21 21 21 20 20 19 19 19 17 15 12 10 9 9 10 10 10 9 8 7 9 10 11 9 6 3 2 3 4 5 6 6 8 12 20 33 45 54 58 54 48 42 36 33 31 31 30 28
2 2 2 2 2 3 4 4 5 7 8 10 12 14 16 18 20 22 23 23 23 23 23 23 23 22 21 20 19 19 18 17 16 16 16 16 16 15 13 10 8 7 8 10 11 9 7 5 3 4 5 5 5 4 5 7 15 27 39 51 55 55 51 44 36 33 33 33 31
0 1 1 1 1 1 2 2 2 3 4 4 6 7 10 12 14 17 20 22 23 24 25 25 25 24 23 21 20 19 18 18 18 18 18 19 20 20 17 13 10 8 8 8 10 10 10 11 5 5 6 6 5 5 5 4 5 11 20 33 45 52 54 51 41 34 31 34 33
-0 -0 0 0 0 1 1 1 1 2 2 2 2 3 4 6 8 10 13 16 19 22 25 26 27 27 26 25 22 20 18 17 18 18 19 20 21 21 20 17 13 11 9 9 9 9 10 13 8 7 9 8 7 8 8 6 3 2 5 13 27 40 49 52 46 37 30 30 33
0 0 0 -0 0 0 1 1 1 1 2 1 1 1 2 2 3 5 7 9 12 15 19 23 26 28 29 29 26 23 20 17 17 17 18 19 20 20 19 17 15 13 11 10 10 10 10 12 13 14 15 15 13 12 10 7 5 2 0 1 11 25 39 48 48 41 33 26 30
1 1 0 0 0 0 0 0 1 1 1 2 2 2 1 1 1 2 3 4 6 8 11 15 19 24 27 29 29 27 24 20 17 16 17 19 19 19 18 17 15 14 13 13 14 14 15 16 18 20 23 25 24 21 17 13 10 6 2 -1 4 15 28 40 44 43 36 27 28
1 1 1 1 1 1 1 1 1 1 1 1 1 1 2 2 2 2 2 2 3 4 5 7 10 15 20 24 26 28 28 25 21 18 17 18 19 20 20 18 16 15 15 15 16 17 17 17 17 19 22 26 29 30 28 24 20 16 11 6 5 11 22 35 42 43 39 32 29
2 2 2 2 1 1 1 1 1 1 1 1 1 1 1 2 2 3 3 3 3 3 3 3 5 8 11 15 19 23 26 27 26 23 20 18 18 19 20 20 18 15 14 13 13 13 12 11 12 13 15 19 21 22 22 22 23 23 22 19 14 15 21 31 41 44 43 38 35
3 3 2 2 2 2 2 1 1 1 1 1 1 1 1 1 2 3 3 3 3 4 4 4 4 5 6 9 13 16 20 23 25 25 24 22 19 18 18 19 19 17 15 12 10 7 5 4 3 3 4 5 5 4 4 5 9 14 19 23 21 20 22 27 38 44 46 44 41
3 3 3 3 3 2 2 2 2 2 2 1 1 1 1 1 1 2 2 2 3 4 5 5 5 5 5 6 8 11 14 18 21 24 25 25 23 20 18 17 17 18 18 17 14 10 6 2 -1 -2 -2 -1 -2 -2 -2 -0 5 9 12 14 14 15 17 22 32 41 46 47 45
4 4 3 3 3 3 3 3 2 2 2 2 2 2 2 1 1 1 1 2 2 3 4 5 5 5 5 5 6 7 10 14 17 20 23 24 24 23 21 19 16 16 16 17 18 16 13 9 4 -0 -3 -4 -5 -5 -1 10 22 27 24 14 5 1 0 5 15 27 38 45 45
4 4 4 4 3 3 3 3 3 3 3 3 3 2 2 2 2 2 1 1 2 2 3 3 5 5 6 6 7 7 8 10 13 17 20 22 23 24 23 22 19 17 15 15 17 19 20 19 14 8 2 -2 -4 -2 5 17 29 34 32 26 15 4 -6 -11 -6 4 18 33 40
5 4 4 4 4 4 4 4 3 3 3 3 3 3 3 3 2 2 2 2 2 2 2 2 3 4 5 6 7 8 8 9 10 13 16 20 22 23 23 23 22 19 17 15 15 17 20 23 24 22 17 11 7 8 11 16 19 20 21 22 23 21 15 4 -4 -5 1 15 30
5 5 4 4 4 4 4 4 4 3 3 3 3 3 3 3 3 3 2 2 2 2 2 2 2 3 4 5 6 7 9 10 10 11 13 16 19 21 22 23 22 21 20 17 15 15 16 19 25 29 31 30 25 21 17 14 12 12 13 16 18 21 24 25 17 8 3 7 22
5 5 5 4 4 4 4 4 4 4 3 3 3 3 3 3 3 3 3 3 3 2 2 2 3 3 3 4 5 7 8 10 11 11 12 13 16 19 21 22 22 22 21 20 18 16 14 13 17 23 28 32 30 25 20 14 11 11 13 17 19 20 21 23 23 17 11 8 19
5 5 5 4 4 4 4 4 4 4 4 3 3 3 3 3 3 3 3 3 3 3 3 3 3 3 3 4 5 6 7 9 11 12 13 13 15 17 19 21 21 22 22 22 20 19 17 14 12 14 18 24 25 23 19 13 9 8 10 13 18 21 24 25 24 20 16 14 20
5 5 5 5 5 4 4 4 4 4 4 3 3 3 3 3 3 3 3 3 3 3 3 3 2 3 3 4 5 6 7 9 10 12 13 14 15 16 18 20 21 22 22 22 22 21 19 18 14 12 13 16 21 22 20 15 10 6 5 6 8 13 19 28 33 33 31 27 26
5 5 5 5 5 5 4 4 4 4 4 4 4 4 4 3 3 3 3 3 3 3 3 2 2 3 4 4 5 6 7 8 10 11 13 14 15 16 17 19 21 22 22 23 23 23 22 20 18 15 13 12 16 20 22 20 15 9 4 2 1 1 4 13 27 36 40 36 29
5 5 5 5 5 5 5 4 4 4 4 4 4 4 4 4 4 4 4 3 3 3 3 3 3 3 4 4 5 6 7 8 10 12 14 15 16 16 17 19 21 22 23 23 24 24 24 23 21 19 16 12 11 15 19 22 20 16 10 4 -0 -5 -6 -3 11 26 36 38 31
5 5 5 5 5 5 5 4 4 4 4 4 4 4 4 4 4 4 4 4 3 3 3 3 3 3 3 4 6 7 8 9 11 13 14 16 17 17 18 19 21 22 24 24 24 25 25 24 23 21 19 15 11 10 12 16 20 19 17 12 7 0 -5 -8 0 14 28 36 33
5 5 5 5 5 5 5 5 5 5 4 4 4 4 4 4 4 4 4 4 4 4 3 3 3 4 4 5 6 7 9 10 12 13 15 16 17 18 18 19 20 22 24 25 25 26 26 26 24 23 21 18 14 10 8 8 11 14 17 17 15 10 4 -3 -2 7 20 32 33
6 6 5 5 5 5 5 5 5 5 5 5 5 5 4 4 4 4 4 4 4 4 4 4 4 4 5 5 6 7 9 11 12 14 15 17 18 19 19 20 20 22 24 26 27 27 27 27 26 24 22 20 18 14 10 6 6 7 10 13 16 17 14 7 2 4 13 25 30
6 6 6 6 6 5 5 5 5 5 5 5 5 5 5 5 5 5 4 4 4 4 4 4 4 4 5 6 7 8 9 11 13 15 16 17 19 20 20 20 21 22 24 26 28 29 29 29 28 26 23 21 19 17 14 10 7 5 3 3 7 14 19 17 9 5 7 16 24
6 6 6 6 6 6 6 5 5 5 5 5 5 5 5 5 5 5 5 4 4 4 4 4 4 5 5 6 7 8 10 11 13 15 17 18 19 20 21 21 21 22 23 26 28 30 31 31 30 29 26 23 21 19 17 14 10 7 3 -3 -4 2 11 21 17 11 7 9 17
6 6 6 6 6 6 6 6 6 6 5 5 5 5 5 5 5 5 5 5 5 5 5 5 5 5 6 7 8 9 10 12 13 15 17 18 20 20 21 21 21 22 23 25 28 30 32 33 33 32 30 26 23 20 18 16 13 10 6 0 -7 -9 -3 10 17 16 11 8 12
7 7 7 7 6 6 6 6 6 6 6 6 5 5 5 5 5 5 5 5 5 5 5 5 5 6 7 8 9 10 11 12 14 15 16 18 19 20 21 21 21 22 22 24 27 30 33 35 35 35 33 30 26 23 20 18 15 12 8 4 -2 -8 -11 -6 7 15 16 12 11
7 7 7 7 7 7 6 6 6 6 6 6 6 6 5 5 5 5 5 5 5 5 5 5 6 6 7 9 10 11 12 13 14 15 17 18 19 19 20 21 21 22 22 23 26 29 33 36 37 37 36 34 30 26 23 19 16 13 10 7 4 -1 -7 -11 -4 7 16 18 12
7 7 7 7 7 7 7 6 6 6 6 6 6 6 6 5 5 5 5 5 5 5 5 6 6 7 8 9 11 12 13 14 15 16 17 17 18 19 19 20 20 21 22 23 25 28 31 35 38 39 38 37 34 30 26 21 17 14 11 9 7 5 1 -5 -6 1 11 22 18
7 7 7 7 7 7 7 7 6 6 6 6 6 6 6 5 5 5 5 5 5 5 6 6 6 7 8 10 11 13 14 15 16 17 17 18 18 18 18 19 20 21 22 23 24 26 29 34 38 40 40 40 38 34 29 24 19 15 12 10 9 8 6 2 -2 -0 7 20 25
Height
5634 5632 5630 5628 5627 5626 5624 5623 5622 5621 5620 5619 5618 5618 5618 5617 5617 5616 5616 5615 5615 5615 5615 5615 5615 5614 5614 5614 5614 5614 5614 5613 5613 5613 5613 5614 5614 5614 5615 5615 5615 5615 5615 5614 5614 5615 5615 5615 5616 5616 5617 5618 5620 5622 5624 5627 5629 5631 5633 5635 5638 5640 5643 5645 5648 5651 5654 5657 5658
5633 5631 5629 5628 5626 5625 5623 5622 5621 5620 5619 5618 5617 5616 5616 5615 5614 5613 5613 5612 5612 5611 5611 5610 5610 5610 5610 5609 5609 5609 5609 5609 5609 5609 5609 5609 5609 5609 5609 5609 5609 5609 5609 5609 5609 5609 5609 5609 5609 5609 5610 5611 5613 5614 5617 5618 5621 5623 5625 5627 5630 5632 5635 5638 5640 5644 5647 5650 5652
5631 5629 5628 5626 5625 5624 5623 5621 5620 5619 5618 5617 5616 5615 5614 5613 5612 5612 5611 5610 5609 5608 5607 5607 5606 5606 5605 5605 5605 5605 5605 5604 5604 5604 5604 5604 5604 5604 5604 5604 5604 5604 5604 5604 5603 5603 5603 5603 5603 5603 5603 5604 5605 5607 5609 5611 5613 5615 5617 5619 5622 5624 5627 5630 5633 5636 5639 5643 5645
5630 5628 5627 5625 5624 5623 5621 5620 5619 5618 5617 5615 5614 5613 5612 5611 5610 5609 5608 5608 5607 5606 5605 5604 5603 5602 5602 5601 5601 5601 5600 5600 5600 5600 5600 5600 5600 5600 5599 5599 5599 5598 5598 5598 5598 5598 5598 5597 5596 5596 5596 5597 5598 5599 5601 5603 5605 5607 5609 5611 5613 5616 5619 5622 5625 5628 5632 5635 5638
5630 5628 5626 5624 5623 5621 5620 5619 5618 5617 5615 5614 5613 5612 5611 5609 5608 5607 5606 5605 5605 5603 5603 5602 5601 5600 5599 5598 5598 5597 5597 5596 5596 5596 5595 5595 5595 5595 5595 5594 5594 5593 5593 5593 5592 5592 5591 5591 5590 5589 5589 5590 5591 5592 5594 5596 5598 5599 5601 5603 5605 5608 5611 5614 5617 5621 5624 5627 5630
5629 5627 5626 5624 5622 5621 5619 5618 5617 5615 5614 5613 5612 5611 5610 5608 5607 5606 5605 5603 5602 5601 5600 5599 5598 5598 5597 5596 5595 5595 5594 5593 5593 5593 5592 5592 5591 5591 5590 5589 5589 5588 5587 5587 5586 5585 5584 5584 5583 5582 5582 5583 5583 5585 5587 5588 5590 5592 5593 5595 5598 5600 5603 5606 5609 5613 5616 5619 5623
5628 5627 5625 5623 5622 5620 5618 5617 5616 5614 5613 5611 5610 5609 5608 5607 5605 5604 5603 5602 5600 5599 5598 5597 5596 5595 5594 5593 5593 5592 5592 5591 5590 5590 5589 5588 5588 5587 5586 5585 5584 5583 5582 5581 5580 5579 5578 5577 5576 5575 5575 5576 5577 5578 5579 5581 5583 5584 5585 5587 5590 5592 5595 5598 5601 5604 5608 5611 5615
5627 5626 5624 5623 5621 5619 5618 5616 5614 5613 5612 5610 5609 5608 5606 5604 5603 5602 5600 5599 5598 5597 5596 5594 5593 5593 5592 5591 5590 5589 5589 5588 5588 5587 5586 5585 5584 5583 5583 5581 5580 5579 5578 5577 5576 5574 5573 5572 5571 5570 5569 5569 5570 5571 5572 5574 5575 5576 5578 5579 5581 5584 5586 5589 5592 5596 5599 5603 5607
5627 5625 5623 5622 5620 5618 5617 5615 5613 5612 5611 5609 5608 5606 5605 5603 5601 5600 5598 5597 5596 5594 5593 5592 5591 5590 5589 5588 5588 5587 5586 5585 5584 5583 5583 5582 5581 5580 5579 5578 5576 5575 5574 5573 5572 5570 5569 5568 5566 5565 5565 5564 5564 5565 5565 5567 5567 5568 5569 5571 5573 5576 5578 5581 5583 5587 5591 5594 5598
5626 5624 5623 5621 5619 5618 5616 5614 5613 5611 5610 5608 5607 5605 5603 5602 5600 5598 5597 5595 5594 5592 5591 5590 5588 5588 5587 5586 5585 5584 5583 5582 5581 5580 5579 5578 5577 5576 5575 5574 5573 5572 5570 5569 5568 5566 5565 5563 5563 5562 5561 5560 5560 5559 5559 5560 5560 5561 5562 5563 5566 5568 5570 5572 5575 5579 5582 5586 5590
5626 5624 5622 5621 5619 5617 5616 5614 5612 5611 5609 5607 5606 5604 5602 5601 5599 5597 5595 5594 5592 5591 5589 5588 5586 5585 5584 5583 5582 5581 5581 5580 5579 5578 5577 5575 5574 5573 5572 5571 5569 5568 5567 5566 5564 5563 5561 5560 5559 5558 5558 5557 5556 5555 5555 5554 5554 5554 5555 5556 5558 5560 5562 5564 5567 5571 5574 5578 5582
5625 5623 5622 5620 5618 5617 5615 5613 5612 5610 5608 5607 5605 5603 5601 5600 5598 5596 5594 5593 5591 5589 5588 5586 5584 5583 5582 5581 5580 5578 5578 5577 5576 5575 5573 5573 5571 5570 5568 5567 5566 5565 5563 5562 5561 5559 5558 5557 5556 5555 5554 5553 5552 5551 5551 5550 5549 5548 5548 5549 5551 5553 5554 5557 5560 5563 5566 5569 5573
5624 5622 5621 5619 5617 5616 5614 5612 5611 5609 5607 5606 5604 5602 5600 5598 5597 5595 5593 5591 5589 5588 5586 5584 5583 5581 5579 5578 5577 5576 5574 5573 5572 5571 5569 5568 5568 5567 5566 5565 5563 5562 5560 5559 5558 5557 5555 5554 5553 5551 5550 5549 5548 5548 5547 5546 5545 5544 5544 5544 5545 5546 5548 5550 5553 5555 5558 5561 5565
5623 5621 5619 5618 5616 5614 5613 5611 5610 5608 5606 5605 5603 5601 5599 5598 5596 5594 5592 5590 5588 5586 5584 5583 5581 5579 5578 5576 5574 5573 5571 5570 5568 5567 5565 5564 5563 5563 5563 5563 5561 5560 5558 5557 5555 5555 5553 5551 5549 5548 5547 5546 5545 5544 5543 5542 5541 5541 5540 5539 5539 5541 5543 5546 5547 5549 5551 5553 5557
5621 5619 5618 5616 5614 5613 5611 5610 5608 5607 5605 5604 5602 5600 5598 5597 5595 5593 5591 5589 5587 5585 5583 5582 5579 5578 5576 5574 5572 5570 5569 5567 5565 5564 5562 5561 5560 5559 5558 5558 5557 5556 5555 5554 5553 5552 5551 5549 5548 5545 5544 5542 5541 5540 5539 5538 5538 5537 5536 5536 5535 5535 5537 5540 5543 5544 5545 5546 5549
5621 5619 5617 5615 5613 5612 5610 5609 5607 5606 5604 5603 5601 5599 5598 5596 5594 5592 5590 5588 5587 5585 5583 5581 5579 5577 5575 5573 5571 5569 5567 5565 5563 5561 5560 5558 5556 5555 5553 5553 5552 5551 5550 5550 5549 5548 5548 5547 5546 5544 5542 5540 5538 5536 5535 5534 5533 5533 5532 5532 5532 5531 5532 5533 5537 5539 5539 5539 5542
5620 5618 5617 5615 5613 5611 5609 5608 5606 5604 5603 5601 5599 5598 5596 5594 5593 5591 5589 5587 5585 5583 5582 5580 5578 5576 5574 5572 5570 5567 5565 5563 5561 5559 5557 5556 5554 5552 5550 5549 5548 5547 5546 5546 5545 5544 5543 5542 5542 5541 5540 5538 5537 5534 5533 5531 5530 5528 5528 5528 5527 5527 5527 5527 5530 5532 5533 5534 5535
5620 5618 5616 5614 5612 5611 5609 5607 5605 5603 5601 5599 5598 5596 5594 5592 5591 5589 5587 5585 5583 5581 5579 5578 5576 5574 5572 5570 5568 5565 5563 5561 5559 5557 5555 5553 5551 5549 5548 5546 5545 5544 5543 5543 5541 5540 5539 5538 5537 5536 5535 5534 5533 5532 5531 5530 5528 5527 5525 5524 5523 5523 5523 5522 5523 5525 5527 5528 5529
5619 5617 5615 5613 5612 5610 5608 5606 5604 5602 5600 5598 5596 5594 5592 5590 5588 5586 5584 5582 5580 5578 5577 5575 5573 5571 5569 5567 5565 5563 5561 5559 5557 5554 5553 5551 5549 5547 5546 5544 5542 5541 5539 5538 5538 5537 5536 5534 5533 5532 5530 5528 5527 5526 5525 5525 5525 5524 5523 5521 5519 5518 5518 5518 5518 5518 5519 5521 5522
5618 5617 5615 5613 5611 5609 5607 5605 5603 5601 5599 5597 5594 5593 5590 5588 5586 5584 5582 5580 5578 5576 5574 5572 5570 5568 5566 5564 5562 5560 5558 5556 5554 5553 5550 5548 5547 5545 5543 5541 5539 5538 5536 5535 5533 5533 5532 5530 5529 5528 5527 5525 5523 5521 5520 5519 5518 5518 5518 5518 5517 5514 5513 5513 5513 5513 5513 5514 5516
5618 5616 5614 5612 5610 5608 5606 5604 5602 5600 5598 5595 5593 5591 5589 5587 5584 5582 5580 5578 5576 5574 5572 5570 5568 5566 5564 5563 5560 5558 5556 5554 5553 5551 5548 5547 5544 5542 5540 5538 5537 5535 5533 5531 5530 5528 5527 5526 5525 5524 5523 5521 5520 5518 5517 5515 5514 5513 5513 5513 5513 5511 5509 5508 5508 5508 5508 5509 5510
5617 5615 5613 5611 5609 5607 5605 5603 5601 5598 5596 5594 5592 5590 5588 5585 5583 5581 5578 5576 5574 5572 5570 5568 5566 5564 5563 5561 5559 5557 5555 5553 5550 5548 5546 5544 5542 5540 5538 5535 5533 5532 5530 5528 5526 5525 5523 5522 5520 5519 5518 5517 5515 5514 5513 5512 5510 5509 5508 5508 5507 5507 5506 5505 5504 5503 5504 5505 5506
5616 5613 5612 5610 5608 5605 5603 5601 5599 5597 5595 5593 5590 5588 5586 5584 5582 5579 5577 5575 5572 5570 5568 5566 5564 5562 5560 5558 5557 5555 5553 5551 5548 5546 5543 5541 5539 5537 5535 5533 5530 5528 5526 5524 5523 5521 5519 5518 5516 5515 5514 5512 5511 5509 5508 5507 5506 5505 5504 5503 5502 5502 5502 5501 5501 5500 5500 5500 5502
5614 5612 5610 5608 5606 5604 5602 5599 5597 5595 5593 5591 5588 5586 5584 5582 5580 5578 5575 5573 5571 5568 5566 5563 5561 5559 5557 5555 5553 5552 5550 5548 5546 5543 5541 5538 5536 5534 5531 5529 5527 5525 5523 5521 5518 5517 5515 5513 5512 5511 5509 5508 5506 5505 5504 5503 5502 5500 5499 5498 5498 5498 5497 5497 5498 5498 5497 5497 5498
5613 5611 5608 5606 5604 5602 5600 5598 5595 5593 5591 5589 5587 5585 5583 5580 5578 5576 5573 5571 5569 5566 5564 5561 5559 5556 5554 5552 5549 5548 5546 5544 5543 5541 5538 5536 5533 5530 5528 5525 5523 5521 5519 5517 5515 5513 5511 5509 5508 5506 5504 5503 5502 5500 5499 5498 5498 5497 5495 5494 5494 5493 5493 5493 5494 5495 5495 5495 5495
5611 5609 5607 5605 5603 5600 5598 5596 5594 5592 5589 5587 5585 5583 5580 5578 5576 5573 5571 5569 5567 5564 5562 5559 5557 5554 5551 5549 5546 5544 5542 5540 5538 5536 5535 5533 5530 5527 5524 5522 5519 5517 5515 5513 5510 5508 5506 5504 5503 5501 5499 5498 5497 5496 5495 5494 5493 5493 5492 5491 5490 5490 5489 5489 5491 5492 5493 5493 5492
5609 5607 5605 5603 5601 5598 5596 5594 5592 5589 5587 5585 5583 5581 5578 5576 5574 5572 5569 5567 5564 5562 5559 5557 5554 5552 5549 5547 5544 5541 5539 5536 5534 5532 5530 5528 5526 5523 5521 5518 5515 5513 5510 5508 5506 5504 5502 5500 5498 5496 5494 5493 5492 5491 5490 5490 5489 5489 5488 5488 5487 5487 5486 5486 5488 5490 5493 5493 5492
5607 5605 5603 5601 5598 5596 5594 5592 5590 5588 5585 5583 5581 5579 5577 5574 5572 5569 5567 5565 5562 5560 5557 5555 5552 5549 5547 5544 5542 5539 5536 5533 5531 5528 5526 5524 5522 5520 5517 5514 5511 5509 5506 5504 5502 5499 5498 5496 5493 5492 5490 5488 5488 5487 5486 5486 5486 5485 5485 5485 5484 5483 5483 5483 5484 5484 5485 5488 5489
5605 5603 5601 5599 5597 5594 5592 5590 5588 5586 5583 5581 5579 5577 5574 5572 5570 5568 5565 5563 5560 5558 5555 5553 5550 5547 5545 5542 5540 5537 5534 5531 5528 5525 5523 5520 5518 5515 5513 5511 5508 5505 5502 5500 5498 5495 5493 5491 5489 5488 5486 5484 5483 5482 5482 5482 5482 5482 5482 5481 5481 5481 5480 5479 5479 5479 5479 5479 5480
5603 5601 5599 5597 5595 5593 5590 5588 5586 5584 5581 5579 5577 5575 5572 5570 5568 5565 5563 5560 5558 5555 5553 5550 5548 5545 5542 5539 5537 5534 5531 5528 5525 5522 5519 5516 5513 5511 5508 5506 5503 5501 5498 5495 5493 5491 5489 5487 5485 5483 5482 5480 5479 5478 5478 5478 5478 5478 5478 5478 5478 5477 5477 5476 5475 5475 5475 5475 5474
5602 5599 5597 5595 5593 5591 5588 5586 5584 5582 5580 5577 5575 5573 5570 5568 5566 5563 5561 5558 5556 5553 5550 5548 5545 5542 5539 5537 5534 5531 5528 5525 5522 5519 5516 5512 5509 5506 5503 5501 5498 5496 5493 5490 5488 5486 5483 5482 5480 5479 5477 5476 5475 5474 5473 5473 5473 5473 5473 5473 5473 5473 5473 5473 5472 5471 5471 5470 5470
5600 5598 5596 5593 5592 5589 5587 5585 5583 5580 5578 5576 5573 5571 5569 5566 5564 5561 5558 5556 5553 5551 5548 5546 5543 5540 5537 5534 5531 5528 5525 5522 5518 5515 5512 5508 5505 5501 5498 5495 5493 5491 5488 5485 5483 5480 5478 5476 5475 5474 5473 5472 5470 5469 5469 5469 5469 5469 5468 5468 5469 5469 5469 5469 5469 5468 5468 5467 5467
5599 5597 5594 5593 5590 5588 5586 5583 5581 5579 5576 5574 5572 5569 5567 5564 5562 5559 5556 5554 5551 5548 5546 5543 5540 5537 5534 5531 5528 5525 5521 5518 5514 5511 5508 5504 5501 5497 5493 5490 5488 5485 5483 5480 5477 5475 5473 5471 5469 5468 5467 5467 5466 5465 5465 5464 5464 5464 5464 5464 5464 5465 5465 5467 5467 5466 5465 5464 5464
5597 5595 5593 5591 5589 5586 5584 5582 5579 5577 5574 5572 5570 5567 5565 5562 5560 5557 5554 5551 5548 5546 5543 5540 5537 5534 5530 5527 5524 5521 5518 5514 5511 5507 5503 5500 5497 5493 5489 5486 5482 5479 5477 5474 5472 5469 5467 5465 5464 5463 5462 5461 5460 5460 5460 5460 5460 5460 5460 5460 5460 5460 5461 5462 5464 5464 5463 5463 5462
5596 5593 5591 5589 5587 5584 5582 5579 5577 5575 5573 5570 5568 5565 5563 5560 5557 5555 5552 5549 5546 5543 5540 5536 5533 5530 5526 5523 5520 5517 5513 5510 5506 5503 5499 5496 5492 5489 5485 5481 5478 5474 5472 5469 5466 5464 5462 5460 5458 5457 5456 5455 5455 5455 5455 5455 5455 5455 5455 5456 5456 5457 5457 5458 5459 5460 5461 5460 5460
5594 5592 5589 5587 5585 5582 5580 5578 5575 5573 5570 5568 5565 5563 5560 5558 5555 5552 5549 5546 5543 5540 5537 5533 5530 5526 5523 5519 5515 5512 5508 5505 5502 5498 5494 5491 5488 5484 5481 5477 5473 5469 5466 5464 5461 5458 5456 5454 5453 5451 5450 5450 5449 5449 5449 5449 5449 5449 5450 5451 5451 5452 5453 5454 5455 5456 5457 5457 5457
5592 5590 5588 5585 5583 5580 5578 5576 5573 5571 5568 5566 5563 5560 5558 5555 5552 5549 5546 5543 5540 5537 5533 5530 5527 5523 5519 5515 5511 5507 5503 5500 5497 5493 5489 5486 5482 5479 5476 5472 5468 5465 5461 5458 5456 5453 5451 5448 5447 5445 5444 5444 5443 5443 5444 5444 5444 5444 5444 5445 5446 5448 5449 5450 5451 5452 5453 5454 5454
5590 5588 5586 5583 5581 5578 5576 5573 5571 5568 5566 5563 5561 5558 5555 5552 5549 5546 5543 5540 5537 5534 5531 5527 5523 5520 5516 5512 5508 5503 5499 5495 5491 5487 5484 5480 5477 5473 5470 5467 5463 5460 5456 5453 5450 5448 5445 5443 5441 5439 5438 5438 5438 5438 5438 5438 5438 5438 5438 5439 5440 5442 5444 5445 5447 5448 5449 5450 5451
5588 5586 5583 5581 5579 5576 5574 5571 5568 5566 5563 5561 5558 5555 5552 5549 5546 5543 5540 5537 5534 5531 5527 5523 5520 5516 5512 5508 5504 5499 5495 5490 5486 5482 5478 5474 5470 5467 5464 5461 5458 5454 5451 5448 5445 5442 5439 5437 5435 5433 5432 5432 5431 5431 5432 5432 5432 5432 5432 5433 5434 5437 5439 5440 5442 5444 5445 5446 5448
5586 5583 5581 5579 5576 5574 5571 5569 5566 5563 5561 5558 5555 5552 5549 5546 5543 5540 5537 5533 5530 5527 5523 5520 5516 5512 5508 5504 5500 5496 5491 5486 5482 5477 5473 5469 5465 5461 5458 5455 5453 5449 5446 5443 5440 5437 5434 5432 5429 5427 5426 5425 5425 5425 5425 5426 5426 5426 5426 5427 5429 5431 5433 5435 5437 5439 5441 5442 5444
5583 5581 5578 5576 5574 5571 5568 5566 5563 5560 5558 5555 5552 5549 5546 5543 5540 5536 5533 5529 5526 5523 5519 5516 5512 5508 5504 5500 5496 5491 5487 5482 5478 5473 5469 5464 5460 5456 5453 5450 5447 5444 5441 5438 5435 5432 5429 5426 5424 5422 5420 5418 5418 5418 5419 5419 5420 5420 5421 5421 5423 5425 5428 5430 5432 5434 5435 5437 5438